When you browse on this site, cookies collect data to enhance your experience and personalize the content and advertising you see.
Visit our Privacy Policy to learn more. By continuing to use the site, you agree to this use of cookies and data.
  • In Portugal
  • List of Countries
  • For 7 days
  • Water Temperature
  • Weather Map
  • Weather Widgets
  • user-avatar
    Login

    Hourly Weather Yackovschina

    Today, 18 September, Wednesday

    Time Temperature Precipitation Wind Pressure Humidity
    00:00 +6°C° 0.1 mm 4 mps 732 mmHg 91%
    01:00 +6°C° 0.1 mm 4 mps 732 mmHg 90%
    02:00 +6°C° 0 mm 4 mps 731 mmHg 92%
    03:00 +6°C° 1.1 mm 4 mps 731 mmHg 91%
    04:00 +5°C° 1.1 mm 5 mps 731 mmHg 90%
    05:00 +5°C° 1.1 mm 5 mps 731 mmHg 90%
    06:00 +4°C° 0.1 mm 6 mps 732 mmHg 89%
    07:00 +4°C° 0.1 mm 6 mps 732 mmHg 88%
    08:00 +4°C° 0 mm 6 mps 733 mmHg 88%
    09:00 +5°C° 0 mm 6 mps 733 mmHg 85%
    10:00 +5°C° 0 mm 6 mps 734 mmHg 83%
    11:00 +7°C° 0 mm 5 mps 734 mmHg 80%
    12:00 +7°C° 0.1 mm 6 mps 735 mmHg 79%
    13:00 +7°C° 0.1 mm 6 mps 735 mmHg 78%
    14:00 +8°C° 0.1 mm 7 mps 736 mmHg 77%
    15:00 +8°C° 0.1 mm 6 mps 736 mmHg 75%
    16:00 +9°C° 0.1 mm 6 mps 737 mmHg 73%
    17:00 +10°C° 0.1 mm 5 mps 738 mmHg 72%
    18:00 +9°C° 0.6 mm 5 mps 738 mmHg 78%
    19:00 +8°C° 0.6 mm 5 mps 739 mmHg 84%
    20:00 +7°C° 0.6 mm 5 mps 739 mmHg 90%
    21:00 +7°C° 0.1 mm 5 mps 739 mmHg 90%
    22:00 +6°C° 0.1 mm 5 mps 740 mmHg 91%
    23:00 +6°C° 0.1 mm 5 mps 740 mmHg 92%

    Tomorrow, 19 September, Thursday

    Time Temperature Precipitation Wind Pressure Humidity
    00:00 +6°C° 0 mm 5 mps 740 mmHg 92%
    01:00 +7°C° 0 mm 5 mps 740 mmHg 91%
    02:00 +7°C° 0 mm 5 mps 741 mmHg 91%
    03:00 +6°C° 0 mm 5 mps 741 mmHg 91%
    04:00 +6°C° 0 mm 5 mps 741 mmHg 91%
    05:00 +6°C° 0 mm 5 mps 741 mmHg 91%
    06:00 +6°C° 0 mm 5 mps 742 mmHg 90%
    07:00 +6°C° 0 mm 5 mps 742 mmHg 89%
    08:00 +6°C° 0 mm 5 mps 742 mmHg 89%
    09:00 +7°C° 0 mm 5 mps 743 mmHg 86%
    10:00 +7°C° 0 mm 5 mps 743 mmHg 84%
    11:00 +8°C° 0 mm 4 mps 744 mmHg 81%
    12:00 +8°C° 0 mm 4 mps 744 mmHg 77%
    13:00 +10°C° 0 mm 4 mps 744 mmHg 74%
    14:00 +10°C° 0 mm 4 mps 744 mmHg 70%
    15:00 +11°C° 0 mm 3 mps 744 mmHg 70%
    16:00 +11°C° 0 mm 3 mps 744 mmHg 69%
    17:00 +12°C° 0 mm 2 mps 744 mmHg 68%
    18:00 +10°C° 0.1 mm 2 mps 744 mmHg 74%
    19:00 +9°C° 0.1 mm 3 mps 744 mmHg 80%
    20:00 +7°C° 0.1 mm 3 mps 744 mmHg 86%
    21:00 +7°C° 0 mm 3 mps 744 mmHg 87%
    22:00 +7°C° 0 mm 3 mps 744 mmHg 89%
    23:00 +7°C° 0 mm 3 mps 744 mmHg 91%

    Day after tomorrow, 20 September, Friday

    Time Temperature Precipitation Wind Pressure Humidity
    00:00 +5°C° 0 mm 4 mps 744 mmHg 92%
    01:00 +5°C° 0 mm 4 mps 744 mmHg 94%
    02:00 +4°C° 0 mm 4 mps 744 mmHg 95%
    03:00 +5°C° 0 mm 5 mps 744 mmHg 93%
    04:00 +5°C° 0 mm 5 mps 744 mmHg 92%
    05:00 +5°C° 0 mm 5 mps 745 mmHg 90%
    06:00 +5°C° 0 mm 5 mps 745 mmHg 89%
    07:00 +4°C° 0 mm 6 mps 745 mmHg 88%
    08:00 +4°C° 0 mm 6 mps 745 mmHg 86%
    09:00 +5°C° 0 mm 6 mps 746 mmHg 81%
    10:00 +5°C° 0 mm 6 mps 746 mmHg 76%
    11:00 +7°C° 0 mm 5 mps 747 mmHg 71%
    12:00 +8°C° 0.2 mm 6 mps 747 mmHg 66%
    13:00 +9°C° 0.2 mm 6 mps 747 mmHg 61%
    14:00 +10°C° 0.2 mm 6 mps 747 mmHg 56%
    15:00 +9°C° 0 mm 6 mps 747 mmHg 58%
    16:00 +9°C° 0 mm 5 mps 747 mmHg 60%
    17:00 +8°C° 0 mm 4 mps 747 mmHg 62%
    18:00 +7°C° 0 mm 4 mps 747 mmHg 68%
    19:00 +5°C° 0 mm 3 mps 748 mmHg 73%
    20:00 +5°C° 0 mm 2 mps 748 mmHg 79%
    21:00 +5°C° 0 mm 2 mps 748 mmHg 81%
    22:00 +4°C° 0 mm 2 mps 748 mmHg 82%
    23:00 +4°C° 0 mm 2 mps 748 mmHg 83%

    21 September, Saturday

    Time Temperature Precipitation Wind Pressure Humidity
    00:00 +4°C° 0 mm 2 mps 748 mmHg 83%
    01:00 +3°C° 0 mm 2 mps 748 mmHg 83%
    02:00 +3°C° 0 mm 2 mps 748 mmHg 83%
    03:00 +3°C° 0 mm 2 mps 748 mmHg 82%
    04:00 +3°C° 0 mm 3 mps 748 mmHg 81%
    05:00 +3°C° 0 mm 3 mps 748 mmHg 80%
    06:00 +4°C° 0 mm 3 mps 747 mmHg 78%
    07:00 +5°C° 0 mm 4 mps 747 mmHg 77%
    08:00 +6°C° 0 mm 4 mps 747 mmHg 75%
    09:00 +6°C° 0.1 mm 5 mps 747 mmHg 78%
    10:00 +7°C° 0.1 mm 5 mps 747 mmHg 81%
    11:00 +7°C° 0.1 mm 6 mps 746 mmHg 83%
    12:00 +8°C° 0.1 mm 6 mps 746 mmHg 83%
    13:00 +9°C° 0.1 mm 6 mps 746 mmHg 83%
    14:00 +11°C° 0.1 mm 7 mps 746 mmHg 83%
    15:00 +11°C° 0 mm 6 mps 745 mmHg 82%
    16:00 +11°C° 0 mm 6 mps 745 mmHg 82%
    17:00 +12°C° 0 mm 5 mps 745 mmHg 82%
    18:00 +12°C° 0 mm 5 mps 745 mmHg 83%
    19:00 +10°C° 0 mm 5 mps 745 mmHg 84%
    20:00 +11°C° 0 mm 4 mps 745 mmHg 86%
    21:00 +10°C° 0 mm 4 mps 745 mmHg 87%
    22:00 +10°C° 0 mm 4 mps 745 mmHg 89%
    23:00 +10°C° 0 mm 4 mps 745 mmHg 90%

    22 September, Sunday

    Time Temperature Precipitation Wind Pressure Humidity
    00:00 +9°C° 0 mm 5 mps 745 mmHg 92%
    01:00 +8°C° 0 mm 5 mps 744 mmHg 93%
    02:00 +8°C° 0 mm 5 mps 744 mmHg 94%
    03:00 +8°C° 0 mm 5 mps 744 mmHg 93%
    04:00 +8°C° 0 mm 5 mps 744 mmHg 93%
    05:00 +9°C° 0 mm 5 mps 744 mmHg 92%
    06:00 +9°C° 0 mm 5 mps 744 mmHg 90%
    07:00 +9°C° 0 mm 5 mps 744 mmHg 88%
    08:00 +10°C° 0 mm 5 mps 744 mmHg 86%
    09:00 +10°C° 0 mm 5 mps 745 mmHg 84%
    10:00 +12°C° 0 mm 5 mps 745 mmHg 82%
    11:00 +13°C° 0 mm 4 mps 745 mmHg 80%
    12:00 +13°C° 0 mm 4 mps 745 mmHg 79%
    13:00 +13°C° 0 mm 4 mps 745 mmHg 77%
    14:00 +14°C° 0 mm 3 mps 745 mmHg 76%
    15:00 +13°C° 0 mm 3 mps 745 mmHg 75%
    16:00 +14°C° 0 mm 2 mps 745 mmHg 75%
    17:00 +14°C° 0 mm 2 mps 745 mmHg 75%
    18:00 +13°C° 0 mm 2 mps 745 mmHg 78%
    19:00 +12°C° 0 mm 1 mps 745 mmHg 81%
    20:00 +10°C° 0 mm 1 mps 745 mmHg 84%
    21:00 +8°C° 0 mm 2 mps 745 mmHg 81%
    22:00 +8°C° 0 mm 2 mps 745 mmHg 78%
    23:00 +7°C° 0 mm 3 mps 745 mmHg 74%

    23 September, Monday

    Time Temperature Precipitation Wind Pressure Humidity
    00:00 +7°C° 0 mm 3 mps 745 mmHg 75%
    01:00 +5°C° 0 mm 3 mps 745 mmHg 75%
    02:00 +5°C° 0 mm 3 mps 744 mmHg 75%
    03:00 +5°C° 0 mm 3 mps 744 mmHg 77%
    04:00 +5°C° 0 mm 4 mps 743 mmHg 79%
    05:00 +5°C° 0 mm 4 mps 743 mmHg 81%
    06:00 +6°C° 0 mm 4 mps 742 mmHg 82%
    07:00 +6°C° 0 mm 5 mps 742 mmHg 83%
    08:00 +7°C° 0 mm 5 mps 741 mmHg 84%
    09:00 +9°C° 0 mm 5 mps 740 mmHg 80%
    10:00 +10°C° 0 mm 5 mps 740 mmHg 76%
    11:00 +13°C° 0 mm 5 mps 739 mmHg 72%
    12:00 +13°C° 0 mm 5 mps 739 mmHg 71%
    13:00 +14°C° 0 mm 4 mps 738 mmHg 71%
    14:00 +14°C° 0 mm 4 mps 737 mmHg 70%
    15:00 +14°C° 0 mm 4 mps 737 mmHg 70%
    16:00 +13°C° 0 mm 3 mps 736 mmHg 70%
    17:00 +13°C° 0 mm 3 mps 736 mmHg 71%
    18:00 +13°C° 0 mm 2 mps 736 mmHg 74%
    19:00 +12°C° 0 mm 2 mps 735 mmHg 78%
    20:00 +10°C° 0 mm 1 mps 735 mmHg 82%
    21:00 +10°C° 0 mm 1 mps 735 mmHg 83%
    22:00 +10°C° 0 mm 1 mps 735 mmHg 84%
    23:00 +9°C° 0 mm 1 mps 735 mmHg 85%
    Show more